Location: Binningen
(47.7924°N, 8.7261°E)
Time: 18:04:03
(UTC+00:00)

Cosmos 1733 Rocket - Pass Details

Date: 06 October 2021
Orbit: 604 x 627 km, 82.5° (Epoch: 20 October)

Event Time Altitude Azimuth Distance (km) Brightness Sun altitude
Rises 02:51:38 0° 353° (N) 2,904 6.7 -27.0°
Reaches altitude 10° 02:53:54 10° 358° (N) 1,997 5.9 -26.7°
Maximum altitude 02:58:16 58° 78° (ENE) 732 3.6 -26.0°
Drops below altitude 10° 03:02:37 10° 158° (SSE) 1,993 5.7 -25.3°
Sets 03:04:53 0° 162° (SSE) 2,897 6.5 -25.0°
